Volver al catálogo

BREEZE-M DEB

ActivoHEO
NORAD 34243·DEBRIS·🇷🇺 Russia

Lanzado Feb 28, 2006 desde Baikonur Cosmodrome

Loading…

Próximos Pases (próximas 24 horas)

TLE

ActualizadoSource: Space-Track

Época: Sep 11, 2026, 16:29 UTC

1 34243U 06006BJ  26254.68710633  .00003197  00000-0  34392-2 0  9994
2 34243  51.6488  40.9160 5024513 124.0359 294.2582  5.39615385 63044

Sigue BREEZE-M DEB en tiempo real con AllMySat

Download on the App Store